Time,TemperatureF,DewpointF,PressureIn,WindDirection,WindDirectionDegrees,WindSpeedMPH,WindSpeedGustMPH,Humidity,HourlyPrecipIn,Conditions,Clouds,dailyrainin,SoftwareType,DateUTC
2013-01-31 00:00:00,35.1,28.0,18.26,NW,318,0.0,0.0,75,0.00,,,0.00,WUHU216WMR968SP,2013-01-31 05:00:00,
2013-01-31 00:01:00,35.1,28.0,18.26,NW,318,0.0,0.0,75,0.00,,,0.00,WUHU216WMR968SP,2013-01-31 05:01:00,
2013-01-31 00:03:00,35.1,28.0,18.26,NW,318,0.0,0.0,75,0.00,,,0.00,WUHU216WMR968SP,2013-01-31 05:03:00,
2013-01-31 00:08:00,35.1,28.0,18.26,NW,318,0.0,0.0,75,0.00,,,0.00,WUHU216WMR968SP,2013-01-31 05:08:00,
2013-01-31 00:13:00,35.1,28.0,18.26,NW,318,0.0,0.0,75,0.00,,,0.00,WUHU216WMR968SP,2013-01-31 05:13:00,
2013-01-31 00:18:00,35.1,28.0,18.26,NW,318,0.0,0.0,75,0.00,,,0.00,WUHU216WMR968SP,2013-01-31 05:18:00,
2013-01-31 00:23:00,35.2,28.1,18.26,NW,318,0.0,0.0,75,0.00,,,0.00,WUHU216WMR968SP,2013-01-31 05:23:00,
2013-01-31 00:28:00,35.2,28.1,18.26,NW,318,0.0,0.0,75,0.00,,,0.00,WUHU216WMR968SP,2013-01-31 05:28:00,
2013-01-31 00:33:00,35.2,28.1,18.26,NW,318,0.0,0.0,75,0.00,,,0.00,WUHU216WMR968SP,2013-01-31 05:33:00,
2013-01-31 00:38:00,35.1,28.0,18.26,NW,318,0.0,0.0,75,0.00,,,0.00,WUHU216WMR968SP,2013-01-31 05:38:00,
2013-01-31 00:43:00,35.1,28.0,18.26,NW,318,0.0,0.0,75,0.00,,,0.00,WUHU216WMR968SP,2013-01-31 05:43:00,
2013-01-31 00:48:00,35.1,28.0,18.26,NW,318,0.0,0.0,75,0.00,,,0.00,WUHU216WMR968SP,2013-01-31 05:48:00,
2013-01-31 00:53:00,35.2,28.1,18.26,NW,318,0.0,0.0,75,0.00,,,0.00,WUHU216WMR968SP,2013-01-31 05:53:00,
2013-01-31 00:58:00,35.4,28.3,18.26,NW,318,0.0,0.0,75,0.00,,,0.00,WUHU216WMR968SP,2013-01-31 05:58:00,
2013-01-31 01:03:00,35.4,28.3,18.26,NW,318,0.0,0.0,75,0.00,,,0.00,WUHU216WMR968SP,2013-01-31 06:03:00,
2013-01-31 01:08:00,35.6,28.5,18.26,NW,318,0.0,0.0,75,0.00,,,0.00,WUHU216WMR968SP,2013-01-31 06:08:00,
2013-01-31 01:13:00,35.6,28.5,18.26,NW,318,0.0,0.0,75,0.00,,,0.00,WUHU216WMR968SP,2013-01-31 06:13:00,
2013-01-31 01:18:00,35.6,28.5,18.26,NW,318,0.0,0.0,75,0.00,,,0.00,WUHU216WMR968SP,2013-01-31 06:18:00,
2013-01-31 01:23:00,35.4,28.6,18.26,NW,318,0.0,0.0,76,0.00,,,0.00,WUHU216WMR968SP,2013-01-31 06:23:00,
2013-01-31 01:28:00,35.6,28.5,18.26,NW,318,0.0,0.0,75,0.00,,,0.00,WUHU216WMR968SP,2013-01-31 06:28:00,
2013-01-31 01:33:00,35.8,28.7,18.26,NW,318,0.0,0.0,75,0.00,,,0.00,WUHU216WMR968SP,2013-01-31 06:33:00,
2013-01-31 01:38:00,35.8,28.7,18.26,NW,318,0.0,0.0,75,0.00,,,0.00,WUHU216WMR968SP,2013-01-31 06:38:00,
2013-01-31 01:43:00,35.8,28.7,18.26,NW,318,0.0,0.0,75,0.00,,,0.00,WUHU216WMR968SP,2013-01-31 06:43:00,
2013-01-31 01:48:00,36.0,28.9,18.26,NW,318,0.0,0.0,75,0.00,,,0.00,WUHU216WMR968SP,2013-01-31 06:48:00,
2013-01-31 01:53:00,36.1,29.0,18.26,NW,318,0.0,0.0,75,0.00,,,0.00,WUHU216WMR968SP,2013-01-31 06:53:00,
2013-01-31 01:58:00,36.1,29.0,18.26,NW,318,0.0,0.0,75,0.00,,,0.00,WUHU216WMR968SP,2013-01-31 06:58:00,
2013-01-31 02:03:00,36.3,29.2,18.26,NW,318,0.0,0.0,75,0.00,,,0.00,WUHU216WMR968SP,2013-01-31 07:03:00,
2013-01-31 02:08:00,36.3,29.2,18.26,NW,318,0.0,0.0,75,0.00,,,0.00,WUHU216WMR968SP,2013-01-31 07:08:00,
2013-01-31 02:13:00,36.3,29.2,18.26,NW,318,0.0,0.0,75,0.00,,,0.00,WUHU216WMR968SP,2013-01-31 07:13:00,
2013-01-31 02:18:00,36.3,29.2,18.26,NW,318,0.0,0.0,75,0.00,,,0.00,WUHU216WMR968SP,2013-01-31 07:18:00,
2013-01-31 02:23:00,36.3,29.2,18.26,NW,318,0.0,0.0,75,0.00,,,0.00,WUHU216WMR968SP,2013-01-31 07:23:00,
2013-01-31 02:28:00,36.3,29.2,18.26,NW,318,0.0,0.0,75,0.00,,,0.00,WUHU216WMR968SP,2013-01-31 07:28:00,
2013-01-31 02:33:00,36.5,29.7,18.26,NW,318,0.0,0.0,76,0.00,,,0.00,WUHU216WMR968SP,2013-01-31 07:33:00,
2013-01-31 02:38:00,36.5,29.7,18.26,NW,318,0.0,0.0,76,0.00,,,0.00,WUHU216WMR968SP,2013-01-31 07:38:00,
2013-01-31 02:43:00,36.5,29.7,18.26,NW,318,0.0,0.0,76,0.00,,,0.00,WUHU216WMR968SP,2013-01-31 07:43:00,
2013-01-31 02:48:00,36.7,29.9,18.26,NW,318,0.0,0.0,76,0.00,,,0.00,WUHU216WMR968SP,2013-01-31 07:48:00,
2013-01-31 02:53:00,36.9,30.1,18.26,NW,318,0.0,0.0,76,0.00,,,0.00,WUHU216WMR968SP,2013-01-31 07:53:00,
2013-01-31 02:59:00,37.2,30.4,18.26,NW,318,0.0,0.0,76,0.00,,,0.00,WUHU216WMR968SP,2013-01-31 07:59:00,
2013-01-31 03:04:00,37.2,30.4,18.26,NW,318,0.0,0.0,76,0.00,,,0.00,WUHU216WMR968SP,2013-01-31 08:04:00,
2013-01-31 03:11:00,39.0,32.0,18.26,NW,318,0.0,0.0,75,0.00,,,0.00,WUHU216WMR968SP,2013-01-31 08:11:00,
2013-01-31 03:16:00,38.1,30.9,18.26,NW,318,0.0,0.0,75,0.00,,,0.00,WUHU216WMR968SP,2013-01-31 08:16:00,
2013-01-31 03:21:00,39.2,32.0,18.26,SSE,149,0.0,0.0,75,0.00,,,0.00,WUHU216WMR968SP,2013-01-31 08:21:00,
2013-01-31 03:26:00,45.3,37.4,18.26,SSE,158,0.0,0.0,74,0.00,,,0.00,WUHU216WMR968SP,2013-01-31 08:26:00,
2013-01-31 03:31:00,47.3,41.0,18.26,SSE,154,0.0,0.0,74,0.00,,,0.00,WUHU216WMR968SP,2013-01-31 08:31:00,
2013-01-31 03:36:00,48.4,41.0,18.26,SE,143,0.0,0.0,74,0.00,,,0.00,WUHU216WMR968SP,2013-01-31 08:36:00,
2013-01-31 03:41:00,48.4,41.0,18.26,SE,127,0.0,0.0,74,0.00,,,0.00,WUHU216WMR968SP,2013-01-31 08:41:00,
2013-01-31 03:46:00,47.8,41.0,18.26,SE,134,0.0,0.0,74,0.00,,,0.00,WUHU216WMR968SP,2013-01-31 08:46:00,
2013-01-31 03:51:00,48.4,41.0,18.26,SE,127,0.0,0.0,74,0.00,,,0.00,WUHU216WMR968SP,2013-01-31 08:51:00,
2013-01-31 03:56:00,49.6,42.8,18.26,ESE,112,0.0,0.0,74,0.00,,,0.00,WUHU216WMR968SP,2013-01-31 08:56:00,
2013-01-31 04:01:00,50.0,42.8,18.26,ESE,113,0.0,0.0,74,0.00,,,0.00,WUHU216WMR968SP,2013-01-31 09:01:00,
2013-01-31 04:06:00,49.8,42.8,18.26,SE,133,0.0,0.0,74,0.00,,,0.00,WUHU216WMR968SP,2013-01-31 09:06:00,
2013-01-31 04:12:00,50.5,42.8,18.26,ESE,122,0.0,0.0,74,0.00,,,0.00,WUHU216WMR968SP,2013-01-31 09:12:00,
2013-01-31 04:17:00,50.7,42.8,18.26,SE,124,0.0,0.0,74,0.00,,,0.00,WUHU216WMR968SP,2013-01-31 09:17:00,
2013-01-31 04:22:00,51.1,44.6,18.26,SE,137,0.0,0.0,74,0.00,,,0.00,WUHU216WMR968SP,2013-01-31 09:22:00,
2013-01-31 04:27:00,52.2,42.8,18.26,SE,127,0.0,0.0,73,0.00,,,0.00,WUHU216WMR968SP,2013-01-31 09:27:00,
2013-01-31 04:34:00,51.1,44.6,18.26,SE,138,0.0,0.0,74,0.00,,,0.00,WUHU216WMR968SP,2013-01-31 09:34:00,
2013-01-31 04:39:00,51.6,44.6,18.26,ESE,117,0.0,0.0,74,0.00,,,0.00,WUHU216WMR968SP,2013-01-31 09:39:00,
2013-01-31 04:44:00,51.6,44.6,18.26,SE,132,0.0,0.0,74,0.00,,,0.00,WUHU216WMR968SP,2013-01-31 09:44:00,
2013-01-31 04:48:00,52.2,42.8,18.26,SSE,154,0.0,0.0,73,0.00,,,0.00,WUHU216WMR968SP,2013-01-31 09:48:00,
2013-01-31 04:53:00,52.3,42.8,18.26,SSW,196,0.0,4.9,73,0.00,,,0.00,WUHU216WMR968SP,2013-01-31 09:53:00,
2013-01-31 04:58:00,51.4,44.6,18.26,South,187,0.0,4.9,74,0.00,,,0.00,WUHU216WMR968SP,2013-01-31 09:58:00,
2013-01-31 05:03:00,52.2,42.8,18.26,ESE,123,0.0,2.2,73,0.00,,,0.00,WUHU216WMR968SP,2013-01-31 10:03:00,
2013-01-31 05:08:00,52.0,42.8,18.26,ESE,105,0.0,0.0,73,0.00,,,0.00,WUHU216WMR968SP,2013-01-31 10:08:00,
2013-01-31 05:13:00,52.7,44.6,18.26,ESE,119,0.0,0.0,73,0.00,,,0.00,WUHU216WMR968SP,2013-01-31 10:13:00,
2013-01-31 05:18:00,51.6,42.8,18.26,SSE,148,0.0,0.0,73,0.00,,,0.00,WUHU216WMR968SP,2013-01-31 10:18:00,
2013-01-31 05:23:00,51.4,42.8,18.26,SE,139,0.0,0.0,73,0.00,,,0.00,WUHU216WMR968SP,2013-01-31 10:23:00,
2013-01-31 05:28:00,53.1,44.6,18.26,ENE,71,0.0,0.0,73,0.00,,,0.00,WUHU216WMR968SP,2013-01-31 10:28:00,
2013-01-31 05:33:00,52.7,44.6,18.26,ESE,122,0.0,2.2,73,0.00,,,0.00,WUHU216WMR968SP,2013-01-31 10:33:00,
2013-01-31 05:38:00,52.7,44.6,18.26,SE,135,0.0,2.2,73,0.00,,,0.00,WUHU216WMR968SP,2013-01-31 10:38:00,
2013-01-31 05:43:00,53.1,44.6,18.26,East,90,0.0,2.2,73,0.00,,,0.00,WUHU216WMR968SP,2013-01-31 10:43:00,
2013-01-31 05:48:00,53.2,44.6,18.26,SE,128,0.0,2.2,73,0.00,,,0.00,WUHU216WMR968SP,2013-01-31 10:48:00,
2013-01-31 05:53:00,52.7,44.6,18.26,East,88,0.0,0.0,73,0.00,,,0.00,WUHU216WMR968SP,2013-01-31 10:53:00,
2013-01-31 05:58:00,52.2,42.8,18.26,NNE,32,0.0,0.0,73,0.00,,,0.00,WUHU216WMR968SP,2013-01-31 10:58:00,
2013-01-31 06:03:00,52.0,42.8,18.26,ENE,66,0.0,0.0,73,0.00,,,0.00,WUHU216WMR968SP,2013-01-31 11:03:00,
2013-01-31 06:08:00,52.9,44.6,18.26,SE,142,0.0,0.0,73,0.00,,,0.00,WUHU216WMR968SP,2013-01-31 11:08:00,
2013-01-31 06:13:00,53.8,44.6,18.26,North,353,0.0,0.0,73,0.00,,,0.00,WUHU216WMR968SP,2013-01-31 11:13:00,
2013-01-31 06:18:00,53.8,44.6,18.26,NNW,328,0.0,0.0,73,0.00,,,0.00,WUHU216WMR968SP,2013-01-31 11:18:00,
2013-01-31 06:23:00,53.4,44.6,18.26,NW,308,0.0,0.0,73,0.00,,,0.00,WUHU216WMR968SP,2013-01-31 11:23:00,
2013-01-31 06:28:00,53.4,44.6,18.26,NW,321,0.0,0.0,73,0.00,,,0.00,WUHU216WMR968SP,2013-01-31 11:28:00,
2013-01-31 06:33:00,53.4,44.6,18.26,NW,320,0.0,0.0,73,0.00,,,0.00,WUHU216WMR968SP,2013-01-31 11:33:00,
2013-01-31 06:38:00,51.4,44.6,18.26,NW,320,0.0,0.0,74,0.00,,,0.00,WUHU216WMR968SP,2013-01-31 11:38:00,
2013-01-31 06:43:00,50.7,42.8,18.26,NW,320,0.0,0.0,74,0.00,,,0.00,WUHU216WMR968SP,2013-01-31 11:43:00,
2013-01-31 06:48:00,50.9,44.6,18.26,NW,320,0.0,0.0,74,0.00,,,0.00,WUHU216WMR968SP,2013-01-31 11:48:00,
2013-01-31 06:53:00,50.7,42.8,18.26,NW,320,0.0,0.0,74,0.00,,,0.00,WUHU216WMR968SP,2013-01-31 11:53:00,
2013-01-31 06:58:00,50.2,42.8,18.26,NW,316,0.0,0.0,74,0.00,,,0.00,WUHU216WMR968SP,2013-01-31 11:58:00,
2013-01-31 07:03:00,50.7,42.8,18.26,NW,316,0.0,0.0,74,0.00,,,0.00,WUHU216WMR968SP,2013-01-31 12:03:00,
2013-01-31 07:08:00,51.6,44.6,18.26,SE,133,0.0,0.0,74,0.00,,,0.00,WUHU216WMR968SP,2013-01-31 12:08:00,
2013-01-31 07:13:00,52.2,42.8,18.26,NW,310,0.0,2.2,73,0.00,,,0.00,WUHU216WMR968SP,2013-01-31 12:13:00,
2013-01-31 07:18:00,52.2,42.8,18.26,SE,139,0.0,2.2,73,0.00,,,0.00,WUHU216WMR968SP,2013-01-31 12:18:00,
2013-01-31 07:23:00,51.6,44.6,18.26,ESE,114,0.0,0.0,74,0.00,,,0.00,WUHU216WMR968SP,2013-01-31 12:23:00,
2013-01-31 07:28:00,50.2,42.8,18.26,ESE,114,0.0,0.0,74,0.00,,,0.00,WUHU216WMR968SP,2013-01-31 12:28:00,
2013-01-31 07:33:00,49.8,42.8,18.26,SSE,153,0.0,0.0,74,0.00,,,0.00,WUHU216WMR968SP,2013-01-31 12:33:00,
2013-01-31 07:39:00,50.7,42.8,18.26,ESE,109,0.0,0.0,74,0.00,,,0.00,WUHU216WMR968SP,2013-01-31 12:39:00,
2013-01-31 07:44:00,50.7,42.8,18.26,SE,138,0.0,0.0,74,0.00,,,0.00,WUHU216WMR968SP,2013-01-31 12:44:00,
2013-01-31 07:50:00,51.8,42.8,18.26,NE,35,0.0,0.0,73,0.00,,,0.00,WUHU216WMR968SP,2013-01-31 12:50:00,
2013-01-31 07:55:00,51.3,44.6,18.26,WNW,285,0.0,0.0,74,0.00,,,0.00,WUHU216WMR968SP,2013-01-31 12:55:00,
2013-01-31 08:00:00,51.1,44.6,18.26,SE,141,0.0,0.0,74,0.00,,,0.00,WUHU216WMR968SP,2013-01-31 13:00:00,
2013-01-31 08:05:00,52.3,42.8,18.26,SSE,158,0.0,0.0,73,0.00,,,0.00,WUHU216WMR968SP,2013-01-31 13:05:00,
2013-01-31 08:10:00,52.3,42.8,18.26,ENE,71,0.0,0.0,73,0.00,,,0.00,WUHU216WMR968SP,2013-01-31 13:10:00,
2013-01-31 08:15:00,52.3,42.8,18.26,ESE,104,0.0,0.0,73,0.00,,,0.00,WUHU216WMR968SP,2013-01-31 13:15:00,
2013-01-31 08:20:00,51.6,44.6,18.26,ENE,65,0.0,0.0,74,0.00,,,0.00,WUHU216WMR968SP,2013-01-31 13:20:00,
2013-01-31 08:25:00,51.6,44.6,18.26,SE,146,0.0,0.0,74,0.00,,,0.00,WUHU216WMR968SP,2013-01-31 13:25:00,
2013-01-31 08:30:00,51.8,42.8,18.26,SE,130,0.0,0.0,73,0.00,,,0.00,WUHU216WMR968SP,2013-01-31 13:30:00,
2013-01-31 08:35:00,52.0,42.8,18.26,North,5,0.0,0.0,73,0.00,,,0.00,WUHU216WMR968SP,2013-01-31 13:35:00,
2013-01-31 08:40:00,51.6,44.6,18.26,SW,231,0.0,0.0,74,0.00,,,0.00,WUHU216WMR968SP,2013-01-31 13:40:00,
2013-01-31 08:45:00,52.0,42.8,18.26,South,173,0.0,2.2,73,0.00,,,0.00,WUHU216WMR968SP,2013-01-31 13:45:00,
2013-01-31 08:50:00,48.9,41.0,18.26,WNW,286,0.0,3.6,74,0.00,,,0.00,WUHU216WMR968SP,2013-01-31 13:50:00,
2013-01-31 08:55:00,46.8,39.2,18.26,NW,321,0.0,3.6,74,0.00,,,0.00,WUHU216WMR968SP,2013-01-31 13:55:00,
2013-01-31 09:00:00,45.9,39.2,18.26,WNW,295,0.0,7.6,75,0.00,,,0.00,WUHU216WMR968SP,2013-01-31 14:00:00,
2013-01-31 09:05:00,45.0,37.4,18.26,WNW,299,0.0,7.6,75,0.00,,,0.00,WUHU216WMR968SP,2013-01-31 14:05:00,
2013-01-31 09:10:00,44.4,37.4,18.26,WNW,303,0.0,0.0,75,0.00,,,0.00,WUHU216WMR968SP,2013-01-31 14:10:00,
2013-01-31 09:15:00,44.1,37.4,18.26,West,268,0.0,0.0,75,0.00,,,0.00,WUHU216WMR968SP,2013-01-31 14:15:00,
2013-01-31 09:20:00,43.3,35.6,18.26,NW,321,0.0,0.0,75,0.00,,,0.00,WUHU216WMR968SP,2013-01-31 14:20:00,
2013-01-31 09:25:00,43.0,35.6,18.26,West,281,0.0,3.6,75,0.00,,,0.00,WUHU216WMR968SP,2013-01-31 14:25:00,
2013-01-31 09:30:00,42.1,35.6,18.26,NW,312,0.0,3.6,75,0.00,,,0.00,WUHU216WMR968SP,2013-01-31 14:30:00,
2013-01-31 09:35:00,42.1,35.6,18.26,WNW,291,0.0,5.4,75,0.00,,,0.00,WUHU216WMR968SP,2013-01-31 14:35:00,
2013-01-31 09:40:00,41.7,33.8,18.26,NW,313,0.0,5.4,75,0.00,,,0.00,WUHU216WMR968SP,2013-01-31 14:40:00,
2013-01-31 09:45:00,41.4,33.8,18.26,NW,315,0.0,5.4,74,0.00,,,0.00,WUHU216WMR968SP,2013-01-31 14:45:00,
2013-01-31 09:50:00,41.2,33.8,18.26,NW,310,0.0,0.0,73,0.00,,,0.00,WUHU216WMR968SP,2013-01-31 14:50:00,
2013-01-31 09:55:00,41.2,32.0,18.26,WNW,285,0.0,0.0,69,0.00,,,0.00,WUHU216WMR968SP,2013-01-31 14:55:00,
2013-01-31 10:00:00,41.2,31.2,18.26,NW,312,0.0,0.0,67,0.00,,,0.00,WUHU216WMR968SP,2013-01-31 15:00:00,
2013-01-31 10:05:00,41.2,32.0,18.26,NNW,336,0.0,0.0,68,0.00,,,0.00,WUHU216WMR968SP,2013-01-31 15:05:00,
2013-01-31 10:10:00,41.7,31.6,18.26,West,272,0.0,0.0,67,0.00,,,0.00,WUHU216WMR968SP,2013-01-31 15:10:00,
2013-01-31 10:15:00,41.9,32.0,18.26,NW,326,0.0,0.0,67,0.00,,,0.00,WUHU216WMR968SP,2013-01-31 15:15:00,
2013-01-31 10:20:00,42.6,32.0,18.26,NW,306,0.0,0.0,64,0.00,,,0.00,WUHU216WMR968SP,2013-01-31 15:20:00,
2013-01-31 10:25:00,42.8,28.2,18.26,NW,318,0.0,0.0,56,0.00,,,0.00,WUHU216WMR968SP,2013-01-31 15:25:00,
2013-01-31 10:30:00,42.8,26.4,18.26,West,272,0.0,0.0,52,0.00,,,0.00,WUHU216WMR968SP,2013-01-31 15:30:00,
2013-01-31 10:35:00,43.3,26.8,18.26,WNW,285,0.0,0.0,52,0.00,,,0.00,WUHU216WMR968SP,2013-01-31 15:35:00,
2013-01-31 10:40:00,43.9,26.4,18.26,West,262,0.0,0.0,50,0.00,,,0.00,WUHU216WMR968SP,2013-01-31 15:40:00,
2013-01-31 10:45:00,44.1,25.1,18.26,WNW,285,0.0,0.0,47,0.00,,,0.00,WUHU216WMR968SP,2013-01-31 15:45:00,
2013-01-31 10:50:00,44.2,25.1,18.26,NNW,334,0.0,0.0,47,0.00,,,0.00,WUHU216WMR968SP,2013-01-31 15:50:00,
2013-01-31 10:55:00,44.1,24.0,18.26,WNW,287,0.0,9.6,45,0.00,,,0.00,WUHU216WMR968SP,2013-01-31 15:55:00,
2013-01-31 11:00:00,44.2,25.1,18.26,West,272,0.0,9.6,47,0.00,,,0.00,WUHU216WMR968SP,2013-01-31 16:00:00,
2013-01-31 11:05:00,44.4,23.7,18.26,WNW,302,0.0,7.6,44,0.00,,,0.00,WUHU216WMR968SP,2013-01-31 16:05:00,
2013-01-31 11:10:00,43.7,23.1,18.26,WNW,301,0.0,0.0,44,0.00,,,0.00,WUHU216WMR968SP,2013-01-31 16:10:00,
2013-01-31 11:15:00,43.2,23.2,18.26,WNW,292,0.0,0.0,45,0.00,,,0.00,WUHU216WMR968SP,2013-01-31 16:15:00,
2013-01-31 11:20:00,42.3,24.9,18.26,NW,308,0.0,0.0,50,0.00,,,0.00,WUHU216WMR968SP,2013-01-31 16:20:00,
2013-01-31 11:25:00,41.4,24.6,18.26,NW,317,0.0,0.0,51,0.00,,,0.00,WUHU216WMR968SP,2013-01-31 16:25:00,
2013-01-31 11:30:00,41.4,24.6,18.26,NW,305,0.0,0.0,51,0.00,,,0.00,WUHU216WMR968SP,2013-01-31 16:30:00,
2013-01-31 11:35:00,41.5,23.2,18.26,WNW,283,0.0,0.0,48,0.00,,,0.00,WUHU216WMR968SP,2013-01-31 16:35:00,
2013-01-31 11:40:00,41.4,21.0,18.26,West,278,0.0,0.0,44,0.00,,,0.00,WUHU216WMR968SP,2013-01-31 16:40:00,
2013-01-31 11:45:00,41.2,21.3,18.26,NNW,328,0.0,0.0,45,0.00,,,0.00,WUHU216WMR968SP,2013-01-31 16:45:00,
2013-01-31 11:50:00,39.9,21.2,18.26,WNW,293,0.0,0.0,47,0.00,,,0.00,WUHU216WMR968SP,2013-01-31 16:50:00,
2013-01-31 11:55:00,39.7,18.9,18.26,West,280,0.0,0.0,43,0.00,,,0.00,WUHU216WMR968SP,2013-01-31 16:55:00,
2013-01-31 12:00:00,40.3,18.8,18.26,NNW,329,0.0,0.0,42,0.00,,,0.00,WUHU216WMR968SP,2013-01-31 17:00:00,
2013-01-31 12:05:00,40.6,18.0,18.26,NNW,334,10.1,14.5,40,0.00,,,0.00,WUHU216WMR968SP,2013-01-31 17:05:00,
2013-01-31 12:10:00,41.5,18.2,18.26,WNW,298,0.0,15.4,39,0.00,,,0.00,WUHU216WMR968SP,2013-01-31 17:10:00,
2013-01-31 12:15:00,41.9,17.9,18.26,WNW,291,0.0,15.4,38,0.00,,,0.00,WUHU216WMR968SP,2013-01-31 17:15:00,
2013-01-31 12:20:00,42.4,17.7,18.26,West,279,0.0,0.0,37,0.00,,,0.00,WUHU216WMR968SP,2013-01-31 17:20:00,
2013-01-31 12:25:00,42.1,16.2,18.26,WNW,303,0.0,0.0,35,0.00,,,0.00,WUHU216WMR968SP,2013-01-31 17:25:00,
2013-01-31 12:30:00,41.9,15.3,18.26,NW,324,8.3,21.9,34,0.00,,,0.00,WUHU216WMR968SP,2013-01-31 17:30:00,
2013-01-31 12:35:00,41.7,16.5,18.26,NW,314,0.0,21.9,36,0.00,,,0.00,WUHU216WMR968SP,2013-01-31 17:35:00,
2013-01-31 12:40:00,41.7,15.8,18.26,NNW,341,8.3,16.3,35,0.00,,,0.00,WUHU216WMR968SP,2013-01-31 17:40:00,
2013-01-31 12:45:00,41.2,14.0,18.26,NNW,333,16.3,20.6,33,0.00,,,0.00,WUHU216WMR968SP,2013-01-31 17:45:00,
2013-01-31 12:50:00,40.6,13.5,18.26,NE,37,12.8,20.6,33,0.00,,,0.00,WUHU216WMR968SP,2013-01-31 17:50:00,
2013-01-31 12:55:00,40.6,13.5,18.26,WNW,300,7.6,28.0,33,0.00,,,0.00,WUHU216WMR968SP,2013-01-31 17:55:00,
2013-01-31 13:00:00,40.6,12.8,18.26,NW,305,12.8,28.0,32,0.00,,,0.00,WUHU216WMR968SP,2013-01-31 18:00:00,
2013-01-31 13:05:00,41.5,13.6,18.26,NNW,328,0.0,16.8,32,0.00,,,0.00,WUHU216WMR968SP,2013-01-31 18:05:00,
2013-01-31 13:10:00,41.7,13.8,18.26,NW,312,0.0,3.1,32,0.00,,,0.00,WUHU216WMR968SP,2013-01-31 18:10:00,
2013-01-31 13:15:00,41.9,13.2,18.26,NNW,329,0.0,11.4,31,0.00,,,0.00,WUHU216WMR968SP,2013-01-31 18:15:00,
2013-01-31 13:20:00,41.4,12.0,18.26,NW,307,11.0,13.2,30,0.00,,,0.00,WUHU216WMR968SP,2013-01-31 18:20:00,
2013-01-31 13:25:00,40.5,12.0,18.26,NNW,331,0.0,16.3,31,0.00,,,0.00,WUHU216WMR968SP,2013-01-31 18:25:00,
2013-01-31 13:30:00,39.9,10.7,18.26,WNW,288,2.2,16.3,30,0.00,,,0.00,WUHU216WMR968SP,2013-01-31 18:30:00,
2013-01-31 13:35:00,39.0,10.7,18.26,WNW,301,2.7,17.4,31,0.00,,,0.00,WUHU216WMR968SP,2013-01-31 18:35:00,
2013-01-31 13:40:00,38.5,10.2,18.26,NW,304,0.0,17.4,31,0.00,,,0.00,WUHU216WMR968SP,2013-01-31 18:40:00,
2013-01-31 13:45:00,38.1,9.9,18.26,WNW,284,0.0,13.2,31,0.00,,,0.00,WUHU216WMR968SP,2013-01-31 18:45:00,
2013-01-31 13:50:00,37.9,9.0,18.26,NW,311,0.0,0.0,30,0.00,,,0.00,WUHU216WMR968SP,2013-01-31 18:50:00,
2013-01-31 13:56:00,37.9,9.0,18.26,NW,326,0.0,0.0,30,0.00,,,0.00,WUHU216WMR968SP,2013-01-31 18:56:00,
2013-01-31 14:01:00,38.3,9.3,18.26,NW,320,13.2,23.7,30,0.00,,,0.00,WUHU216WMR968SP,2013-01-31 19:01:00,
2013-01-31 14:06:00,38.7,10.4,18.26,NW,323,0.0,23.7,31,0.00,,,0.00,WUHU216WMR968SP,2013-01-31 19:06:00,
2013-01-31 14:11:00,38.1,9.2,18.26,NNW,333,3.6,15.0,30,0.00,,,0.00,WUHU216WMR968SP,2013-01-31 19:11:00,
2013-01-31 14:16:00,38.7,9.7,18.26,NNW,332,15.0,23.3,30,0.00,,,0.00,WUHU216WMR968SP,2013-01-31 19:16:00,
2013-01-31 14:21:00,38.8,9.8,18.26,NNW,337,0.0,23.3,30,0.00,,,0.00,WUHU216WMR968SP,2013-01-31 19:21:00,
2013-01-31 14:26:00,38.8,9.8,18.26,North,353,0.0,19.7,30,0.00,,,0.00,WUHU216WMR968SP,2013-01-31 19:26:00,
2013-01-31 14:31:00,39.0,9.9,18.26,NW,320,0.0,19.7,30,0.00,,,0.00,WUHU216WMR968SP,2013-01-31 19:31:00,
2013-01-31 14:36:00,39.2,9.4,18.26,North,9,0.0,11.9,29,0.00,,,0.00,WUHU216WMR968SP,2013-01-31 19:36:00,
2013-01-31 14:41:00,38.8,9.8,18.26,NNW,332,0.0,11.9,30,0.00,,,0.00,WUHU216WMR968SP,2013-01-31 19:41:00,
2013-01-31 14:46:00,38.5,8.8,18.26,WNW,284,0.0,18.3,29,0.00,,,0.00,WUHU216WMR968SP,2013-01-31 19:46:00,
2013-01-31 14:51:00,38.3,8.6,18.26,WNW,301,0.0,18.3,29,0.00,,,0.00,WUHU216WMR968SP,2013-01-31 19:51:00,
2013-01-31 14:56:00,37.9,8.2,18.26,West,276,11.4,14.1,29,0.00,,,0.00,WUHU216WMR968SP,2013-01-31 19:56:00,
2013-01-31 15:01:00,37.8,8.2,18.26,West,269,0.0,14.1,29,0.00,,,0.00,WUHU216WMR968SP,2013-01-31 20:01:00,
2013-01-31 15:06:00,37.4,7.8,18.26,NNW,330,0.0,11.4,29,0.00,,,0.00,WUHU216WMR968SP,2013-01-31 20:06:00,
2013-01-31 15:11:00,37.4,7.8,18.26,NW,322,0.0,0.0,29,0.00,,,0.00,WUHU216WMR968SP,2013-01-31 20:11:00,
2013-01-31 15:16:00,37.2,8.4,18.26,West,277,0.0,0.0,30,0.00,,,0.00,WUHU216WMR968SP,2013-01-31 20:16:00,
2013-01-31 15:21:00,37.0,8.2,18.26,NW,307,0.0,0.0,30,0.00,,,0.00,WUHU216WMR968SP,2013-01-31 20:21:00,
2013-01-31 15:26:00,36.7,7.9,18.26,NNW,339,0.0,0.0,30,0.00,,,0.00,WUHU216WMR968SP,2013-01-31 20:26:00,
2013-01-31 15:31:00,36.7,7.9,18.26,WNW,300,0.0,0.0,30,0.00,,,0.00,WUHU216WMR968SP,2013-01-31 20:31:00,
2013-01-31 15:36:00,36.1,7.4,18.26,NW,311,0.0,0.0,30,0.00,,,0.00,WUHU216WMR968SP,2013-01-31 20:36:00,
2013-01-31 15:41:00,36.1,7.4,18.26,NW,304,0.0,0.0,30,0.00,,,0.00,WUHU216WMR968SP,2013-01-31 20:41:00,
2013-01-31 15:46:00,36.3,7.6,18.26,NNW,333,2.2,7.2,30,0.00,,,0.00,WUHU216WMR968SP,2013-01-31 20:46:00,
2013-01-31 15:51:00,36.1,7.4,18.26,NNW,328,0.0,7.2,30,0.00,,,0.00,WUHU216WMR968SP,2013-01-31 20:51:00,
2013-01-31 15:56:00,36.1,7.4,18.26,NW,306,0.0,2.2,30,0.00,,,0.00,WUHU216WMR968SP,2013-01-31 20:56:00,
2013-01-31 16:01:00,36.1,7.4,18.26,NW,320,0.0,0.0,30,0.00,,,0.00,WUHU216WMR968SP,2013-01-31 21:01:00,
2013-01-31 16:06:00,36.0,7.3,18.26,WNW,288,0.0,0.0,30,0.00,,,0.00,WUHU216WMR968SP,2013-01-31 21:06:00,
2013-01-31 16:11:00,35.6,6.2,18.26,NW,322,2.7,12.8,29,0.00,,,0.00,WUHU216WMR968SP,2013-01-31 21:11:00,
2013-01-31 16:16:00,35.4,6.8,18.26,NNW,337,0.0,12.8,30,0.00,,,0.00,WUHU216WMR968SP,2013-01-31 21:16:00,
2013-01-31 16:21:00,35.1,6.5,18.26,NW,324,0.0,2.7,30,0.00,,,0.00,WUHU216WMR968SP,2013-01-31 21:21:00,
2013-01-31 16:26:00,34.9,6.4,18.26,NW,323,0.0,3.1,30,0.00,,,0.00,WUHU216WMR968SP,2013-01-31 21:26:00,
2013-01-31 16:31:00,34.9,6.4,18.26,NW,316,0.0,7.6,30,0.00,,,0.00,WUHU216WMR968SP,2013-01-31 21:31:00,
2013-01-31 16:36:00,34.7,6.2,18.26,NW,305,0.0,7.6,30,0.00,,,0.00,WUHU216WMR968SP,2013-01-31 21:36:00,
2013-01-31 16:41:00,34.5,6.0,18.26,NW,313,0.0,7.6,30,0.00,,,0.00,WUHU216WMR968SP,2013-01-31 21:41:00,
2013-01-31 16:46:00,34.5,6.0,18.26,NW,310,0.0,3.1,30,0.00,,,0.00,WUHU216WMR968SP,2013-01-31 21:46:00,
2013-01-31 16:51:00,34.2,5.7,18.26,NW,320,0.0,0.0,30,0.00,,,0.00,WUHU216WMR968SP,2013-01-31 21:51:00,
2013-01-31 16:56:00,34.0,5.6,18.26,NW,304,0.0,12.8,30,0.00,,,0.00,WUHU216WMR968SP,2013-01-31 21:56:00,
2013-01-31 17:01:00,33.8,5.4,18.26,NW,318,0.0,12.8,30,0.00,,,0.00,WUHU216WMR968SP,2013-01-31 22:01:00,
2013-01-31 17:06:00,34.0,5.6,18.26,West,274,0.0,15.0,30,0.00,,,0.00,WUHU216WMR968SP,2013-01-31 22:06:00,
2013-01-31 17:11:00,34.0,5.6,18.26,NW,308,0.0,15.0,30,0.00,,,0.00,WUHU216WMR968SP,2013-01-31 22:11:00,
2013-01-31 17:16:00,33.8,5.4,18.26,NW,314,0.0,6.3,30,0.00,,,0.00,WUHU216WMR968SP,2013-01-31 22:16:00,
2013-01-31 17:21:00,33.8,5.4,18.26,NW,310,0.0,0.0,30,0.00,,,0.00,WUHU216WMR968SP,2013-01-31 22:21:00,
2013-01-31 17:26:00,33.8,5.4,18.26,NW,313,0.0,0.0,30,0.00,,,0.00,WUHU216WMR968SP,2013-01-31 22:26:00,
2013-01-31 17:31:00,33.6,5.2,18.26,NW,321,0.0,0.0,30,0.00,,,0.00,WUHU216WMR968SP,2013-01-31 22:31:00,
2013-01-31 17:36:00,33.1,4.8,18.26,NNW,330,0.0,12.8,30,0.00,,,0.00,WUHU216WMR968SP,2013-01-31 22:36:00,
2013-01-31 17:41:00,33.1,4.8,18.26,NW,307,0.0,12.8,30,0.00,,,0.00,WUHU216WMR968SP,2013-01-31 22:41:00,
2013-01-31 17:46:00,32.7,4.4,18.26,NW,317,0.0,18.8,30,0.00,,,0.00,WUHU216WMR968SP,2013-01-31 22:46:00,
2013-01-31 17:51:00,32.4,4.2,18.26,WNW,292,0.0,18.8,30,0.00,,,0.00,WUHU216WMR968SP,2013-01-31 22:51:00,
2013-01-31 17:56:00,32.2,4.7,18.26,NW,320,0.0,0.0,31,0.00,,,0.00,WUHU216WMR968SP,2013-01-31 22:56:00,
2013-01-31 18:01:00,32.4,4.9,18.26,WSW,246,0.0,5.4,31,0.00,,,0.00,WUHU216WMR968SP,2013-01-31 23:01:00,
2013-01-31 18:06:00,32.0,4.5,18.26,NW,308,0.0,5.4,31,0.00,,,0.00,WUHU216WMR968SP,2013-01-31 23:06:00,
2013-01-31 18:11:00,32.0,4.5,18.26,NW,320,0.0,5.8,31,0.00,,,0.00,WUHU216WMR968SP,2013-01-31 23:11:00,
2013-01-31 18:16:00,32.0,4.5,18.26,WNW,300,0.0,5.8,31,0.00,,,0.00,WUHU216WMR968SP,2013-01-31 23:16:00,
2013-01-31 18:21:00,32.2,4.0,18.26,NW,307,0.0,0.0,30,0.00,,,0.00,WUHU216WMR968SP,2013-01-31 23:21:00,
2013-01-31 18:26:00,31.6,3.5,18.26,NW,325,2.7,15.0,30,0.00,,,0.00,WUHU216WMR968SP,2013-01-31 23:26:00,
2013-01-31 18:31:00,31.5,3.4,18.26,NW,325,0.0,20.1,30,0.00,,,0.00,WUHU216WMR968SP,2013-01-31 23:31:00,
2013-01-31 18:36:00,31.1,3.0,18.26,NW,305,0.0,20.1,30,0.00,,,0.00,WUHU216WMR968SP,2013-01-31 23:36:00,
2013-01-31 18:41:00,31.3,3.2,18.26,WNW,290,0.0,15.9,30,0.00,,,0.00,WUHU216WMR968SP,2013-01-31 23:41:00,
2013-01-31 18:46:00,30.9,2.9,18.26,NW,325,10.5,23.7,30,0.00,,,0.00,WUHU216WMR968SP,2013-01-31 23:46:00,
2013-01-31 18:51:00,30.9,2.9,18.26,WNW,285,0.0,23.7,30,0.00,,,0.00,WUHU216WMR968SP,2013-01-31 23:51:00,
2013-01-31 18:56:00,30.6,2.6,18.26,NW,318,0.0,10.5,30,0.00,,,0.00,WUHU216WMR968SP,2013-01-31 23:56:00,
2013-01-31 19:01:00,30.7,2.7,18.26,NNW,330,0.0,11.9,30,0.00,,,0.00,WUHU216WMR968SP,2013-02-01 00:01:00,
2013-01-31 19:06:00,30.6,2.6,18.26,NW,305,0.0,11.9,30,0.00,,,0.00,WUHU216WMR968SP,2013-02-01 00:06:00,
2013-01-31 19:11:00,30.6,2.6,18.26,WNW,301,0.0,17.4,30,0.00,,,0.00,WUHU216WMR968SP,2013-02-01 00:11:00,
2013-01-31 19:16:00,30.4,2.4,18.26,NW,308,0.0,17.4,30,0.00,,,0.00,WUHU216WMR968SP,2013-02-01 00:16:00,
2013-01-31 19:21:00,30.7,1.2,18.26,WNW,303,0.0,9.6,28,0.00,,,0.00,WUHU216WMR968SP,2013-02-01 00:21:00,
2013-01-31 19:26:00,30.7,1.2,18.26,WNW,301,0.0,9.6,28,0.00,,,0.00,WUHU216WMR968SP,2013-02-01 00:26:00,
2013-01-31 19:31:00,30.7,1.2,18.26,NW,323,0.0,8.7,28,0.00,,,0.00,WUHU216WMR968SP,2013-02-01 00:31:00,
2013-01-31 19:36:00,30.7,1.2,18.26,NW,308,0.0,13.2,28,0.00,,,0.00,WUHU216WMR968SP,2013-02-01 00:36:00,
2013-01-31 19:41:00,30.6,1.1,18.26,WNW,296,4.5,16.3,28,0.00,,,0.00,WUHU216WMR968SP,2013-02-01 00:41:00,
2013-01-31 19:46:00,30.7,1.2,18.26,WNW,290,0.0,16.3,28,0.00,,,0.00,WUHU216WMR968SP,2013-02-01 00:46:00,
2013-01-31 19:51:00,30.7,1.2,18.26,NNW,328,0.0,13.6,28,0.00,,,0.00,WUHU216WMR968SP,2013-02-01 00:51:00,
2013-01-31 19:56:00,30.7,1.2,18.26,NNW,327,0.0,12.3,28,0.00,,,0.00,WUHU216WMR968SP,2013-02-01 00:56:00,
2013-01-31 20:01:00,30.6,1.1,18.26,NW,325,0.0,12.3,28,0.00,,,0.00,WUHU216WMR968SP,2013-02-01 01:01:00,
2013-01-31 20:06:00,30.6,1.1,18.26,NW,305,0.0,4.0,28,0.00,,,0.00,WUHU216WMR968SP,2013-02-01 01:06:00,
2013-01-31 20:11:00,30.4,1.0,18.26,WNW,294,0.0,4.0,28,0.00,,,0.00,WUHU216WMR968SP,2013-02-01 01:11:00,
2013-01-31 20:16:00,30.4,1.0,18.26,NW,312,10.5,13.2,28,0.00,,,0.00,WUHU216WMR968SP,2013-02-01 01:16:00,
2013-01-31 20:21:00,30.0,0.6,18.26,NW,315,0.0,13.2,28,0.00,,,0.00,WUHU216WMR968SP,2013-02-01 01:21:00,
2013-01-31 20:26:00,30.0,0.6,18.26,NW,322,0.0,4.5,28,0.00,,,0.00,WUHU216WMR968SP,2013-02-01 01:26:00,
2013-01-31 20:31:00,29.8,0.4,18.26,NNW,327,0.0,15.0,28,0.00,,,0.00,WUHU216WMR968SP,2013-02-01 01:31:00,
2013-01-31 20:36:00,29.7,0.4,18.26,WNW,288,0.0,15.0,28,0.00,,,0.00,WUHU216WMR968SP,2013-02-01 01:36:00,
2013-01-31 20:41:00,29.8,0.4,18.26,NNW,328,0.0,10.5,28,0.00,,,0.00,WUHU216WMR968SP,2013-02-01 01:41:00,
2013-01-31 20:46:00,29.7,0.4,18.26,NNW,332,0.0,10.5,28,0.00,,,0.00,WUHU216WMR968SP,2013-02-01 01:46:00,
2013-01-31 20:52:00,29.5,0.2,18.26,NW,318,0.0,7.6,28,0.00,,,0.00,WUHU216WMR968SP,2013-02-01 01:52:00,
2013-01-31 20:57:00,29.5,0.2,18.26,WNW,299,0.0,3.1,28,0.00,,,0.00,WUHU216WMR968SP,2013-02-01 01:57:00,
2013-01-31 21:02:00,29.5,0.2,18.26,NW,314,0.0,0.0,28,0.00,,,0.00,WUHU216WMR968SP,2013-02-01 02:02:00,
2013-01-31 21:07:00,29.5,0.2,18.26,WNW,292,0.0,0.0,28,0.00,,,0.00,WUHU216WMR968SP,2013-02-01 02:07:00,
2013-01-31 21:12:00,29.3,0.0,18.26,NNE,23,0.0,11.0,28,0.00,,,0.00,WUHU216WMR968SP,2013-02-01 02:12:00,
2013-01-31 21:17:00,29.3,0.0,18.26,NW,318,0.0,11.0,28,0.00,,,0.00,WUHU216WMR968SP,2013-02-01 02:17:00,
2013-01-31 21:22:00,29.1,-0.2,18.26,NW,304,0.0,0.0,28,0.00,,,0.00,WUHU216WMR968SP,2013-02-01 02:22:00,
2013-01-31 21:27:00,28.9,-0.3,18.26,NW,321,0.0,0.0,28,0.00,,,0.00,WUHU216WMR968SP,2013-02-01 02:27:00,
2013-01-31 21:32:00,29.1,-0.2,18.26,NW,321,0.0,2.2,28,0.00,,,0.00,WUHU216WMR968SP,2013-02-01 02:32:00,
2013-01-31 21:37:00,28.9,-0.3,18.26,West,279,0.0,11.9,28,0.00,,,0.00,WUHU216WMR968SP,2013-02-01 02:37:00,
2013-01-31 21:42:00,28.8,-0.4,18.26,NNW,336,0.0,11.9,28,0.00,,,0.00,WUHU216WMR968SP,2013-02-01 02:42:00,
2013-01-31 21:47:00,28.6,-0.6,18.26,NW,319,0.0,0.0,28,0.00,,,0.00,WUHU216WMR968SP,2013-02-01 02:47:00,
2013-01-31 21:52:00,28.6,-0.6,18.26,NW,322,0.0,0.0,28,0.00,,,0.00,WUHU216WMR968SP,2013-02-01 02:52:00,
2013-01-31 21:57:00,28.4,-0.8,18.26,NW,321,0.0,0.0,28,0.00,,,0.00,WUHU216WMR968SP,2013-02-01 02:57:00,
2013-01-31 22:02:00,28.6,-0.6,18.26,NW,308,0.0,0.0,28,0.00,,,0.00,WUHU216WMR968SP,2013-02-01 03:02:00,
2013-01-31 22:07:00,28.6,-0.6,18.26,WNW,293,0.0,0.0,28,0.00,,,0.00,WUHU216WMR968SP,2013-02-01 03:07:00,
2013-01-31 22:12:00,28.8,-0.4,18.26,NW,318,0.0,0.0,28,0.00,,,0.00,WUHU216WMR968SP,2013-02-01 03:12:00,
2013-01-31 22:17:00,28.9,-0.3,18.26,NNW,329,0.0,0.0,28,0.00,,,0.00,WUHU216WMR968SP,2013-02-01 03:17:00,
2013-01-31 22:22:00,28.8,-0.4,18.26,NW,325,0.0,9.6,28,0.00,,,0.00,WUHU216WMR968SP,2013-02-01 03:22:00,
2013-01-31 22:27:00,28.6,-0.6,18.26,WNW,292,0.0,9.6,28,0.00,,,0.00,WUHU216WMR968SP,2013-02-01 03:27:00,
2013-01-31 22:32:00,28.6,-0.6,18.26,North,353,0.0,4.9,28,0.00,,,0.00,WUHU216WMR968SP,2013-02-01 03:32:00,
2013-01-31 22:38:00,28.6,0.9,18.26,NNW,330,0.0,0.0,30,0.00,,,0.00,WUHU216WMR968SP,2013-02-01 03:38:00,
2013-01-31 22:43:00,28.0,1.0,18.26,NW,318,0.0,0.0,31,0.00,,,0.00,WUHU216WMR968SP,2013-02-01 03:43:00,
2013-01-31 22:48:00,27.9,2.3,18.26,NW,318,0.0,3.1,33,0.00,,,0.00,WUHU216WMR968SP,2013-02-01 03:48:00,
2013-01-31 22:53:00,27.7,4.0,18.26,NW,319,0.0,3.1,36,0.00,,,0.00,WUHU216WMR968SP,2013-02-01 03:53:00,
2013-01-31 22:58:00,27.7,5.2,18.26,NE,47,0.0,0.0,38,0.00,,,0.00,WUHU216WMR968SP,2013-02-01 03:58:00,
2013-01-31 23:03:00,27.3,6.5,18.26,NW,324,0.0,0.0,41,0.00,,,0.00,WUHU216WMR968SP,2013-02-01 04:03:00,
2013-01-31 23:08:00,27.3,7.0,18.26,NW,319,0.0,0.0,42,0.00,,,0.00,WUHU216WMR968SP,2013-02-01 04:08:00,
2013-01-31 23:13:00,27.0,7.3,18.26,WNW,293,0.0,0.0,43,0.00,,,0.00,WUHU216WMR968SP,2013-02-01 04:13:00,
2013-01-31 23:18:00,26.6,6.9,18.26,West,262,0.0,8.1,43,0.00,,,0.00,WUHU216WMR968SP,2013-02-01 04:18:00,
2013-01-31 23:23:00,26.4,6.8,18.26,WNW,294,0.0,8.1,43,0.00,,,0.00,WUHU216WMR968SP,2013-02-01 04:23:00,
2013-01-31 23:28:00,26.2,6.6,18.26,NW,305,0.0,5.4,43,0.00,,,0.00,WUHU216WMR968SP,2013-02-01 04:28:00,
2013-01-31 23:33:00,26.1,6.5,18.26,NW,317,0.0,0.0,43,0.00,,,0.00,WUHU216WMR968SP,2013-02-01 04:33:00,
2013-01-31 23:38:00,25.7,6.6,18.26,NW,306,0.0,0.0,44,0.00,,,0.00,WUHU216WMR968SP,2013-02-01 04:38:00,
2013-01-31 23:43:00,25.7,7.1,18.26,WNW,294,0.0,0.0,45,0.00,,,0.00,WUHU216WMR968SP,2013-02-01 04:43:00,
2013-01-31 23:48:00,25.5,8.4,18.26,NW,318,0.0,0.0,48,0.00,,,0.00,WUHU216WMR968SP,2013-02-01 04:48:00,
2013-01-31 23:53:00,25.2,9.5,18.26,WNW,303,0.0,2.7,51,0.00,,,0.00,WUHU216WMR968SP,2013-02-01 04:53:00,
2013-01-31 23:58:00,25.0,9.8,18.26,NW,323,0.0,2.7,52,0.00,,,0.00,WUHU216WMR968SP,2013-02-01 04:58:00,